Wind_Speed
21 21 20 19 19 18 18 19 20 19 18 17 16 14 13 12 11 11 11 11 11 10 10 10 10 10 10 10 10 10 9 9 9 9 9 9 9 9 10 9 9 9 9 9 10 9 8 8 8
20 20 20 19 19 18 20 21 20 20 18 18 16 14 13 12 11 11 11 11 10 9 9 10 10 10 10 10 10 10 9 9 9 9 9 9 9 9 9 9 9 9 9 9 10 10 9 9 9
20 20 19 19 19 20 21 22 22 20 19 18 17 14 13 13 12 11 11 10 10 10 10 10 10 10 10 10 10 9 9 9 9 9 9 10 10 9 9 9 9 9 8 8 9 9 9 8 8
20 20 19 20 20 21 22 22 22 20 19 19 18 16 14 13 12 12 11 11 10 11 11 11 11 11 11 11 10 10 9 9 9 9 9 9 9 8 8 8 8 8 7 8 8 8 7 7 8
18 19 20 20 21 21 22 22 21 21 20 19 18 17 15 14 13 13 12 11 11 11 11 12 11 11 11 11 10 10 10 9 9 9 9 8 8 8 8 8 8 6 7 8 8 8 6 6 6
18 19 20 21 22 22 22 22 22 21 20 19 18 18 16 15 14 13 13 13 12 12 12 13 13 12 12 11 10 10 10 10 10 9 9 9 9 9 8 8 7 7 7 8 7 7 6 5 6
18 18 19 21 22 22 22 22 21 20 19 18 18 18 17 16 15 14 14 14 14 14 13 13 13 12 12 11 11 10 10 10 10 11 10 10 9 9 8 8 8 8 8 7 6 6 5 5 5
17 18 20 22 23 22 22 22 21 20 18 18 18 18 17 16 15 16 16 15 15 15 14 14 13 13 12 11 11 11 10 10 10 10 10 10 10 9 8 8 8 8 7 7 6 5 4 4 4
17 19 20 22 23 22 23 23 21 20 19 18 18 18 17 16 16 16 16 15 15 14 14 14 14 13 13 12 12 12 11 11 10 10 9 9 9 9 9 9 8 8 6 6 5 5 5 4 4
17 18 19 21 22 22 22 22 21 20 19 19 19 18 18 17 16 16 16 16 15 14 14 13 13 13 12 12 12 12 11 11 10 9 9 8 8 8 8 8 8 7 6 5 5 5 4 3 3
15 16 18 19 21 22 22 21 21 21 20 19 19 18 18 17 17 17 17 16 16 15 14 13 12 13 13 13 12 12 11 11 11 10 9 8 8 8 8 8 7 6 6 5 4 4 3 3 2
14 15 17 18 20 21 21 21 20 20 20 19 20 19 19 19 18 18 17 17 17 16 14 13 13 13 13 12 11 11 11 11 11 10 9 9 8 7 7 7 6 6 5 5 4 3 3 2 1
13 13 15 17 19 20 20 21 20 20 20 20 20 19 19 19 19 19 18 18 17 16 15 14 13 13 13 12 12 11 11 11 10 10 9 8 8 7 6 6 6 5 5 4 4 4 3 3 2
10 11 12 15 17 18 19 20 20 19 19 20 20 19 19 19 19 18 18 18 17 17 16 16 14 13 12 12 11 11 11 10 10 9 8 7 7 7 7 6 5 5 4 4 3 3 3 2 2
9 10 11 14 17 18 18 18 19 18 18 18 19 19 18 18 18 18 18 17 16 16 15 15 14 13 12 11 11 11 10 9 9 8 7 6 6 6 6 5 5 4 4 3 3 2 2 2 2
9 10 10 13 15 16 17 17 17 17 17 17 18 18 18 17 17 17 17 17 16 16 15 14 13 12 11 11 10 9 9 8 8 7 6 6 6 5 4 4 3 3 3 3 2 2 2 2 3
7 8 9 10 12 13 15 15 15 15 15 15 16 16 17 16 16 16 16 16 15 15 14 14 13 13 11 11 10 9 8 8 7 6 5 5 5 4 3 3 3 2 2 2 2 2 3 3 3
6 6 7 8 9 10 12 13 13 12 13 14 14 14 15 15 15 15 14 14 14 14 14 13 13 13 12 11 10 9 8 7 7 6 5 5 5 4 3 3 2 2 3 3 3 3 3 4 4
6 6 5 5 6 6 8 9 9 10 11 12 12 13 13 14 13 13 13 13 13 13 13 13 13 12 12 11 11 10 9 8 7 7 6 5 5 5 4 4 4 3 4 4 3 3 4 4 4
7 6 5 3 3 3 4 5 7 7 8 10 10 11 11 11 11 11 12 11 11 11 11 12 12 11 11 11 11 10 9 8 8 7 7 6 5 4 4 5 5 5 4 5 4 4 4 5 5
10 7 5 4 3 2 2 2 3 5 6 7 8 9 9 9 10 10 10 10 10 10 10 11 11 11 10 10 10 10 9 8 8 8 7 7 6 4 4 6 6 6 6 6 6 5 5 6 6
12 10 8 6 5 4 3 1 1 2 4 6 7 8 8 8 8 9 9 9 9 8 9 9 10 10 10 10 9 9 9 8 8 8 7 7 6 6 5 6 7 7 7 7 7 7 6 7 7
14 14 12 10 8 6 5 3 2 1 3 4 5 6 7 7 7 7 7 7 7 7 7 8 8 9 9 9 9 8 8 8 8 8 8 7 6 6 6 7 7 8 8 8 8 8 8 8 8
17 17 15 14 12 10 7 5 4 3 2 3 3 5 6 5 5 5 5 5 6 6 7 7 7 8 8 8 8 8 7 8 8 8 8 7 7 7 6 7 8 8 8 8 8 9 9 9 9
20 19 18 16 14 12 9 8 6 5 4 3 3 4 5 6 6 6 5 5 6 6 7 6 7 8 8 8 8 8 7 8 8 8 8 8 8 7 7 8 8 8 8 9 9 10 10 10 10
22 21 20 19 16 14 13 11 9 8 6 4 4 3 3 4 5 6 6 6 6 7 7 6 7 7 7 7 8 7 7 8 8 8 8 8 8 7 8 9 9 9 9 9 10 10 10 11 11
23 22 21 21 20 18 17 15 13 10 9 7 6 5 4 3 3 5 6 7 6 6 6 7 7 7 7 7 8 7 7 8 8 9 8 8 7 8 9 9 10 10 10 10 10 10 11 11 11
25 24 24 24 23 21 19 17 14 12 11 10 8 7 7 6 4 5 5 6 5 5 5 6 6 6 6 7 7 7 7 8 9 9 9 9 8 9 10 10 10 10 10 10 11 11 11 11 12
27 27 27 26 26 24 22 18 15 13 12 11 10 10 9 7 7 7 6 6 6 6 6 6 7 6 6 7 7 8 8 9 9 9 9 9 10 10 10 10 11 11 10 10 11 11 11 12 12
29 28 27 27 26 25 23 20 16 14 14 13 13 12 11 10 9 9 8 8 7 7 6 7 8 7 7 7 8 8 9 9 10 10 10 10 10 10 11 11 11 11 11 11 11 12 12 13 13
Wind_Direction
64 64 64 64 63 63 64 66 64 61 58 57 59 60 65 68 72 78 80 87 89 92 96 102 102 103 102 103 106 103 104 101 100 98 93 90 89 91 93 98 103 105 109 104 104 105 109 113 114
67 64 63 64 65 66 66 66 63 59 56 55 57 58 60 67 72 78 83 88 89 91 94 99 100 101 101 98 99 99 99 99 99 98 94 93 93 95 96 97 97 100 102 98 99 105 105 108 110
66 63 62 65 69 68 67 65 62 59 56 54 54 57 62 69 76 82 86 92 92 94 95 96 97 98 98 96 96 97 97 98 98 96 97 96 94 97 100 96 97 98 99 98 104 107 111 114 116
65 64 63 66 69 69 67 64 62 60 56 55 54 57 64 70 76 81 84 90 94 97 98 96 94 95 99 98 97 98 97 96 99 100 101 97 93 95 96 97 100 101 103 100 103 107 112 114 118
65 64 64 66 68 67 66 64 62 60 56 55 57 59 62 67 74 79 83 89 92 97 98 97 94 95 98 97 94 92 95 96 98 100 102 100 99 98 97 102 99 101 104 102 103 104 106 116 117
67 66 66 65 65 64 63 63 62 59 57 57 59 61 63 65 71 78 82 87 90 92 95 96 94 96 97 95 92 93 94 93 95 99 98 97 99 100 97 97 98 104 109 107 103 107 108 112 116
69 68 67 65 63 62 61 60 60 59 57 56 58 61 63 65 69 75 81 84 87 89 90 91 91 93 95 94 92 93 95 96 97 99 99 98 100 100 96 98 97 98 102 106 104 110 112 113 118
73 71 68 64 62 61 62 61 59 58 57 56 57 61 62 66 68 73 79 81 84 88 87 87 88 89 91 91 90 91 92 94 97 98 98 96 99 96 94 96 95 96 96 98 97 96 107 120 121
76 72 67 66 63 63 64 64 61 58 57 56 57 59 61 63 68 73 76 79 84 86 87 86 87 88 90 90 88 87 89 90 94 97 98 99 99 96 94 94 94 93 95 97 98 93 92 105 113
76 70 66 66 65 64 64 64 63 61 58 57 58 60 61 64 68 72 74 77 81 84 85 85 85 86 87 89 87 86 87 86 88 93 95 94 95 97 95 91 88 88 93 98 99 97 102 99 109
77 70 67 66 66 65 64 64 64 62 60 58 59 61 62 65 68 71 72 75 79 81 82 82 81 82 82 84 85 83 84 85 85 86 90 89 88 88 88 86 86 87 86 87 92 97 110 104 103
78 74 71 67 66 65 65 65 63 60 60 60 60 62 63 66 67 70 71 73 75 77 79 78 78 78 80 83 83 81 82 84 84 83 83 84 84 80 79 82 83 80 84 87 81 84 83 80 73
85 78 75 71 67 67 65 63 60 58 59 61 62 62 64 65 65 68 71 72 72 72 73 75 76 76 78 80 81 79 82 86 85 81 80 82 84 84 82 79 74 73 78 86 82 71 69 48 33
89 82 76 73 70 67 66 62 61 60 59 59 60 62 64 65 65 66 67 68 69 69 69 70 72 72 75 77 76 74 76 81 80 78 74 73 74 77 77 73 73 70 63 60 61 53 57 45 23
98 88 83 81 76 69 67 63 61 60 59 58 58 60 61 64 64 65 66 69 68 67 67 68 69 69 70 71 71 72 73 74 76 73 70 68 67 64 69 66 62 60 55 48 40 37 35 20 1
108 98 91 87 79 72 68 63 61 58 58 58 59 59 60 62 62 63 65 67 68 68 67 66 66 67 68 67 66 68 70 69 67 65 64 62 59 61 61 57 52 49 45 32 21 10 3 357 349
120 108 99 91 82 74 69 66 62 58 56 57 58 59 59 59 60 62 63 65 65 65 65 63 62 63 65 64 62 62 60 61 61 61 61 56 52 53 53 45 35 26 15 359 346 334 335 340 336
147 125 110 97 86 79 73 68 64 59 56 55 56 57 57 56 59 60 62 63 62 62 61 60 60 60 61 59 57 57 57 56 52 53 52 51 41 30 36 31 11 356 348 340 338 333 331 326 328
168 152 132 110 93 84 76 69 61 55 51 52 54 54 54 54 58 60 59 60 61 60 58 57 56 56 56 54 53 53 53 51 47 44 44 36 25 18 23 20 8 355 347 341 338 336 330 336 340
188 172 162 146 128 91 87 76 60 52 45 47 49 51 52 52 54 56 55 57 56 55 54 54 52 52 51 49 48 49 49 46 41 38 33 29 18 13 15 9 1 358 358 357 352 340 335 338 337
205 201 199 204 189 177 145 91 61 50 45 43 45 48 48 49 47 51 52 52 53 50 47 47 46 45 46 47 45 45 45 40 37 35 33 30 25 23 22 16 8 359 350 342 342 332 325 326 325
216 219 219 226 227 220 222 199 20 26 30 33 33 38 37 39 42 43 44 49 51 49 43 42 41 39 42 43 41 39 37 37 33 29 27 25 25 23 16 8 5 359 349 340 338 337 328 322 321
221 227 228 230 237 241 245 249 256 307 1 20 21 29 33 28 28 32 39 45 45 41 40 37 33 36 36 36 38 35 29 29 28 25 20 16 14 11 3 354 348 348 342 337 334 337 332 327 324
224 228 233 234 236 241 252 256 235 273 315 350 360 11 24 18 11 18 29 34 36 29 29 31 30 30 27 27 28 25 19 20 18 16 11 7 5 1 354 350 347 340 336 332 331 330 326 323 319
226 228 233 234 236 241 254 255 242 256 272 303 318 342 8 24 23 17 20 31 29 26 21 23 25 21 18 20 20 14 13 11 6 5 3 357 355 355 352 349 349 344 342 335 331 329 325 322 321
230 233 237 240 241 245 250 254 248 251 256 273 287 310 334 4 19 19 25 27 22 19 17 16 11 13 13 14 16 14 7 4 1 359 357 355 350 350 350 351 344 340 340 335 332 329 324 321 321
231 233 236 241 244 248 251 257 255 251 252 263 274 282 299 320 347 1 7 13 13 8 7 3 2 5 7 6 6 6 1 0 357 355 354 350 345 343 343 343 340 339 336 333 331 330 326 324 321
231 232 235 240 245 248 252 256 256 254 256 260 264 273 285 292 308 331 339 351 355 349 345 344 349 356 357 357 356 355 352 350 351 349 347 347 343 339 335 337 339 336 335 335 332 330 328 324 321
232 234 237 242 246 250 254 253 255 257 255 257 263 270 274 282 294 305 319 336 339 339 337 337 334 340 344 346 347 347 345 345 344 342 341 341 340 338 336 336 337 338 338 337 336 333 330 328 324
233 236 239 242 246 251 255 253 252 255 254 256 262 269 270 275 282 290 301 313 319 320 322 326 324 326 328 332 337 340 338 337 335 333 334 337 337 336 335 335 335 337 336 337 337 334 332 329 327
Height
5875 5873 5872 5871 5870 5868 5867 5865 5864 5863 5863 5862 5861 5861 5860 5860 5861 5862 5860 5859 5860 5860 5860 5860 5860 5860 5861 5861 5862 5862 5863 5864 5865 5865 5866 5867 5867 5868 5869 5869 5870 5870 5871 5871 5872 5872 5873 5873 5874
5877 5876 5876 5874 5872 5870 5869 5867 5866 5866 5866 5864 5863 5863 5862 5861 5861 5861 5860 5861 5861 5861 5861 5862 5862 5862 5862 5863 5863 5864 5864 5865 5866 5867 5867 5868 5869 5869 5870 5871 5871 5871 5872 5873 5873 5874 5874 5875 5876
5880 5879 5879 5876 5874 5873 5871 5869 5868 5868 5868 5866 5866 5865 5864 5864 5863 5863 5863 5863 5863 5863 5863 5863 5863 5864 5864 5864 5865 5865 5866 5866 5867 5868 5869 5870 5870 5871 5872 5872 5873 5873 5874 5874 5875 5875 5876 5877 5877
5884 5883 5882 5879 5877 5875 5874 5872 5871 5871 5870 5869 5868 5868 5866 5866 5865 5865 5865 5865 5865 5865 5865 5865 5865 5865 5866 5866 5867 5867 5868 5868 5869 5869 5870 5871 5872 5873 5873 5874 5874 5875 5875 5876 5877 5877 5878 5878 5879
5887 5886 5884 5881 5879 5878 5876 5875 5874 5873 5873 5872 5871 5870 5869 5869 5868 5867 5867 5867 5867 5867 5866 5867 5867 5867 5867 5868 5868 5869 5869 5870 5870 5871 5872 5873 5873 5874 5874 5875 5875 5876 5877 5877 5878 5879 5879 5879 5880
5890 5888 5887 5884 5882 5880 5879 5878 5877 5876 5876 5875 5874 5873 5872 5872 5871 5870 5869 5869 5869 5869 5868 5869 5869 5869 5870 5870 5870 5871 5871 5871 5871 5872 5873 5874 5874 5875 5876 5876 5877 5877 5878 5879 5879 5880 5880 5880 5881
5892 5891 5889 5887 5885 5883 5882 5881 5880 5879 5879 5879 5877 5876 5875 5874 5873 5872 5872 5872 5871 5871 5871 5871 5871 5872 5872 5872 5872 5873 5873 5873 5873 5873 5874 5876 5876 5877 5877 5878 5878 5879 5879 5880 5881 5881 5881 5882 5882
5894 5894 5891 5889 5888 5887 5885 5884 5883 5883 5882 5882 5880 5879 5878 5877 5876 5875 5874 5874 5874 5874 5874 5874 5874 5874 5874 5874 5874 5875 5875 5875 5875 5875 5876 5877 5878 5879 5879 5879 5880 5880 5881 5882 5882 5882 5883 5883 5884
5897 5897 5894 5893 5891 5890 5888 5887 5887 5886 5886 5885 5884 5882 5881 5880 5879 5878 5877 5877 5877 5876 5876 5876 5877 5877 5877 5877 5877 5877 5877 5877 5877 5877 5878 5879 5880 5880 5881 5881 5881 5882 5882 5883 5883 5883 5883 5884 5884
5899 5899 5897 5896 5895 5893 5892 5891 5890 5890 5889 5888 5887 5885 5884 5883 5882 5881 5880 5880 5879 5879 5879 5879 5879 5879 5879 5879 5879 5879 5879 5879 5879 5879 5880 5880 5881 5882 5882 5883 5883 5883 5884 5884 5884 5884 5884 5885 5885
5901 5901 5900 5899 5898 5896 5895 5895 5894 5893 5892 5891 5890 5889 5887 5886 5885 5884 5883 5883 5882 5882 5882 5882 5881 5881 5881 5881 5881 5881 5881 5881 5881 5882 5882 5882 5883 5883 5884 5884 5884 5884 5885 5885 5885 5885 5885 5885 5886
5904 5904 5903 5903 5901 5900 5899 5898 5898 5897 5896 5895 5893 5892 5891 5890 5889 5887 5887 5886 5885 5885 5885 5884 5884 5884 5884 5884 5883 5883 5883 5884 5884 5884 5884 5884 5885 5885 5885 5885 5885 5886 5886 5886 5886 5886 5886 5886 5887
5907 5907 5906 5906 5905 5903 5903 5902 5901 5900 5899 5898 5897 5895 5894 5893 5892 5891 5890 5889 5889 5888 5887 5887 5887 5886 5886 5886 5886 5886 5886 5886 5886 5886 5886 5886 5886 5887 5887 5887 5887 5887 5887 5887 5887 5887 5887 5887 5887
5909 5909 5909 5908 5908 5907 5906 5905 5905 5904 5903 5902 5900 5899 5897 5896 5895 5894 5893 5892 5892 5891 5890 5890 5889 5889 5889 5888 5888 5888 5888 5888 5888 5888 5888 5888 5888 5888 5888 5888 5888 5888 5888 5887 5887 5887 5887 5887 5887
5911 5911 5911 5910 5910 5910 5909 5909 5908 5907 5906 5905 5904 5902 5901 5900 5899 5898 5897 5896 5895 5894 5894 5893 5892 5892 5891 5891 5890 5890 5890 5890 5890 5889 5889 5889 5889 5889 5889 5889 5889 5889 5888 5888 5888 5888 5887 5887 5887
5913 5913 5913 5913 5912 5912 5913 5912 5911 5910 5909 5908 5907 5905 5904 5903 5902 5901 5899 5899 5898 5897 5896 5896 5895 5894 5894 5893 5892 5892 5892 5891 5891 5891 5890 5890 5890 5890 5889 5889 5889 5889 5889 5889 5888 5888 5888 5887 5886
5914 5914 5914 5915 5914 5914 5915 5914 5914 5913 5912 5911 5910 5908 5907 5906 5904 5903 5902 5901 5901 5900 5899 5898 5897 5896 5896 5895 5894 5894 5893 5893 5892 5892 5891 5891 5891 5890 5890 5890 5889 5889 5889 5889 5888 5888 5888 5887 5886
5915 5916 5916 5916 5916 5916 5916 5916 5916 5915 5915 5913 5912 5911 5909 5908 5907 5906 5905 5904 5903 5903 5902 5901 5900 5899 5898 5897 5896 5895 5895 5894 5893 5892 5892 5891 5891 5891 5890 5890 5890 5889 5889 5889 5888 5888 5887 5886 5886
5915 5917 5917 5917 5918 5918 5918 5918 5918 5917 5917 5916 5914 5913 5912 5911 5909 5908 5907 5906 5906 5905 5904 5903 5901 5900 5900 5899 5898 5897 5896 5895 5895 5893 5892 5892 5891 5891 5890 5890 5890 5889 5888 5888 5887 5887 5886 5886 5885
5915 5916 5917 5918 5919 5919 5919 5919 5919 5919 5918 5917 5916 5915 5914 5913 5911 5910 5909 5908 5907 5907 5906 5904 5903 5902 5901 5900 5899 5899 5898 5897 5896 5895 5894 5892 5892 5891 5890 5890 5890 5889 5888 5887 5887 5886 5886 5885 5885
5915 5916 5917 5918 5919 5919 5920 5920 5920 5920 5919 5919 5918 5916 5915 5914 5913 5912 5911 5910 5909 5908 5907 5906 5905 5904 5903 5902 5901 5900 5899 5898 5897 5896 5895 5893 5892 5891 5891 5890 5890 5889 5888 5887 5886 5886 5885 5884 5884
5914 5916 5917 5918 5918 5919 5920 5921 5921 5920 5920 5920 5919 5918 5917 5916 5915 5913 5912 5911 5910 5909 5908 5907 5906 5905 5904 5903 5902 5901 5900 5899 5898 5897 5895 5894 5893 5892 5891 5891 5890 5889 5888 5887 5886 5885 5884 5883 5882
5913 5914 5916 5917 5917 5918 5919 5920 5922 5921 5921 5921 5920 5919 5918 5917 5916 5914 5913 5912 5911 5910 5909 5908 5907 5906 5905 5904 5903 5902 5901 5900 5899 5897 5896 5895 5894 5893 5892 5891 5889 5888 5887 5886 5885 5884 5883 5882 5881
5911 5913 5914 5915 5916 5917 5919 5920 5921 5920 5921 5920 5920 5920 5918 5917 5916 5915 5914 5913 5912 5911 5910 5909 5908 5907 5906 5905 5903 5903 5902 5900 5899 5898 5897 5895 5894 5893 5891 5890 5889 5888 5887 5885 5884 5883 5882 5881 5880
5908 5911 5912 5913 5914 5916 5918 5918 5920 5920 5920 5920 5920 5919 5919 5917 5916 5915 5914 5913 5912 5911 5910 5909 5908 5907 5906 5905 5904 5903 5902 5901 5900 5898 5897 5895 5894 5893 5891 5890 5889 5887 5886 5884 5883 5882 5880 5879 5878
5905 5908 5910 5911 5912 5914 5915 5916 5919 5919 5919 5919 5919 5919 5918 5917 5916 5915 5914 5913 5912 5911 5910 5910 5908 5907 5906 5905 5904 5903 5902 5901 5900 5898 5897 5895 5894 5893 5891 5890 5888 5887 5885 5883 5882 5880 5878 5877 5876
5902 5904 5907 5908 5909 5911 5913 5915 5916 5917 5917 5918 5918 5918 5918 5917 5916 5915 5914 5913 5912 5911 5911 5910 5909 5907 5906 5905 5904 5903 5901 5900 5899 5898 5896 5895 5893 5892 5890 5889 5887 5885 5883 5882 5880 5878 5877 5875 5874
5898 5901 5903 5904 5906 5908 5910 5912 5914 5915 5916 5916 5917 5917 5917 5916 5916 5915 5914 5913 5912 5911 5910 5909 5908 5907 5906 5905 5904 5903 5901 5900 5898 5897 5896 5894 5892 5891 5889 5887 5885 5883 5882 5880 5878 5876 5875 5873 5871
5894 5896 5898 5900 5902 5904 5906 5911 5912 5913 5914 5914 5915 5915 5915 5915 5915 5914 5913 5913 5912 5911 5909 5908 5907 5906 5905 5904 5903 5902 5901 5899 5898 5896 5895 5893 5891 5890 5888 5886 5884 5882 5880 5878 5876 5874 5873 5871 5869
5889 5892 5894 5897 5899 5900 5902 5908 5908 5910 5911 5912 5912 5913 5913 5913 5913 5912 5912 5911 5910 5910 5908 5907 5906 5905 5904 5903 5902 5901 5900 5898 5897 5896 5894 5892 5890 5888 5887 5885 5883 5880 5878 5876 5874 5872 5870 5868 5866